Location: Antioch Baptist Church
(32.6696°N, 85.7327°W)
Time: 12:16:13
(UTC+00:00)

Cosmos 1538 Rocket - Pass Details

Date: 14 July 2020
Orbit: 753 x 791 km, 74.0° (Epoch: 08 August)

Event Time Altitude Azimuth Distance (km) Brightness Sun altitude
Rises 01:47:54 0° 202° (SSW) 3,269 7.1 -10.9°
Reaches altitude 10° 01:50:18 10° 205° (SSW) 2,341 6.4 -11.3°
Maximum altitude 01:55:36 68° 287° (WNW) 845 4.4 -12.2°
Drops below altitude 10° 02:00:54 10° 11° (N) 2,335 6.9 -13.1°
Sets 02:03:18 0° 14° (NNE) 3,260 7.6 -13.5°
